Regional Weather Roundup
Issued by NWS

Home | Current Version | Previous Version | Graphics & Text | Print | Product List | Glossary On
Versions: 1 2 3 4 5 6 7 8 9 10 11 12 13 14 15 16 17 18 19 20 21 22 23 24 25 26 27 28 29 30 31 32 33 34 35 36 37 38 39 40 41 42 43 44 45 46 47 48 49 50
000
ASUS43 KOAX 300910
RWRNE

WEATHER ROUNDUP FOR NEBRASKA
NATIONAL WEATHER SERVICE OMAHA NE
400 AM CDT MON MAY 30 2016

NOTES: SATELLITE DATA IS BEING USED TO AUGMENT CLOUD COVER ABOVE
       12000 FEET.
       "FAIR" INDICATES FEW OR NO CLOUDS BELOW 12,000 FEET WITH NO
       SIGNIFICANT WEATHER AND/OR OBSTRUCTIONS TO VISIBILITY.

  * THESE STATIONS DO NOT REPORT WEATHER SUCH AS RAIN...SNOW OR FOG.

NEZ001>004-019>022-054>056-301000-
NEBRASKA PANHANDLE

CITY           SKY/WX    TMP DP  RH WIND       PRES   REMARKS
SCOTTSBLUFF    CLOUDY    55  50  83 E10       30.02S
ALLIANCE       CLOUDY    56  50  80 S12       30.00F
CHADRON        CLOUDY    57  48  72 S7        29.95F
KIMBALL        CLOUDY    49  49  97 SW5       30.06S
SIDNEY         CLOUDY    55  49  80 S14       30.05F
$$

NEZ057>060-069>072-079>082-301000-
SOUTHWEST NEBRASKA

CITY           SKY/WX    TMP DP  RH WIND       PRES   REMARKS
NORTH PLATTE   CLOUDY    60  51  72 CALM      29.97F
IMPERIAL       PTCLDY    59  51  75 SW10      30.02S
LEXINGTON      CLOUDY    59  51  75 S7        29.98F
MCCOOK         PTCLDY    60  52  74 S10       29.96F
OGALLALA       CLOUDY    62  49  62 SW13G20   29.99F
$$

NEZ005>010-023>029-035>040-094-301000-
NORTH CENTRAL NEBRASKA

CITY           SKY/WX    TMP DP  RH WIND       PRES   REMARKS
VALENTINE      CLOUDY    57  52  83 NW5       29.95F
AINSWORTH      CLOUDY    59  52  77 SE3       29.97R
BROKEN BOW     CLOUDY    60  53  77 SW3       29.98F
O`NEILL        CLOUDY    64  57  78 SE5       30.00R
ORD            CLOUDY    63  52  67 SE6       29.97R
THEDFORD       CLOUDY    58  52  78 CALM      29.98R
$$

NEZ041-046>049-061>064-073>077-083>087-301000-
SOUTH CENTRAL NEBRASKA

CITY           SKY/WX    TMP DP  RH WIND       PRES   REMARKS
GRAND ISLAND   PTCLDY    62  52  69 W5        29.97F
AURORA         PTCLDY    59  54  82 SW7       29.97S
HASTINGS       CLEAR     60  54  80 SW6       29.98S
HEBRON         CLEAR     60  54  78 E5        29.98F
HOLDREGE       CLOUDY    57  52  82 CALM      29.99F
KEARNEY *      CLEAR     61  52  72 SW9       29.99F
YORK           CLEAR     64  52  63 SE5       29.99S
$$

NEZ011>018-030>034-042>045-301000-
NORTHEAST NEBRASKA

CITY           SKY/WX    TMP DP  RH WIND       PRES   REMARKS
NORFOLK        MOCLDY    68  53  58 W6        29.96F
ALBION         MOCLDY    64  54  72 N6        29.97S
BLAIR          CLOUDY    65  60  82 CALM      29.99R
FREMONT        CLOUDY    64  58  81 S5        29.99R
TEKAMAH          N/A    N/A N/A N/A MISG      29.96F
WAYNE          CLOUDY    62  59  89 N5        30.00S
$$

NEZ050>053-065>068-078-088>093-301000-
SOUTHEAST NEBRASKA

CITY           SKY/WX    TMP DP  RH WIND       PRES   REMARKS
LINCOLN        PTCLDY    66  59  78 SW3       29.99S
OMAHA EPPLEY   CLOUDY    68  60  75 SE6       29.98F
BEATRICE       CLEAR     63  58  85 S7        29.99F
FALLS CITY     CLEAR     62  61  96 S7        29.99F
NEBRASKA CITY  PTCLDY    64  62  91 S6        29.99S
PLATTSMOUTH    PTCLDY    67  62  83 CALM      30.00R
$$

NEZ044-045-051>053-067-301000-
OMAHA AREA

CITY           SKY/WX    TMP DP  RH WIND       PRES   REMARKS
OMAHA EPPLEY   CLOUDY    68  60  75 SE6       29.98F
BLAIR          CLOUDY    65  60  82 CALM      29.99R
FREMONT        CLOUDY    64  58  81 S5        29.99R
MILLARD        CLOUDY    64  60  89 CALM      29.99R
OFFUTT AFB     CLOUDY    62  61  97 SE5       29.98S
PLATTSMOUTH    PTCLDY    67  62  83 CALM      30.00R
WAHOO          FAIR      65  61  86 E3        29.98S
$$




USA.gov is the U.S. government's official web portal to all federal, state and local government web resources and services.